Stündliche Wetter Abancay

Heute, 2 März, Dienstag

Zeit Temperatur Niederschläge Wind Luftdruck Luftfeuchtigkeit
00:00 +13°C° 0.3 mm 1 m/S 543 mmHg 96%
01:00 +13°C° 0.3 mm 1 m/S 543 mmHg 96%
02:00 +13°C° 0.2 mm 1 m/S 542 mmHg 95%
03:00 +12°C° 0.2 mm 0 m/S 542 mmHg 95%
04:00 +12°C° 0.2 mm 0 m/S 542 mmHg 94%
05:00 +12°C° 0.4 mm 0 m/S 542 mmHg 94%
06:00 +12°C° 0.4 mm 0 m/S 543 mmHg 94%
07:00 +12°C° 0.4 mm 0 m/S 543 mmHg 93%
08:00 +14°C° 0.3 mm 1 m/S 543 mmHg 90%
09:00 +14°C° 0.3 mm 1 m/S 544 mmHg 87%
10:00 +15°C° 0.3 mm 1 m/S 544 mmHg 83%
11:00 +16°C° 0.8 mm 2 m/S 544 mmHg 80%
12:00 +18°C° 0.8 mm 2 m/S 544 mmHg 77%
13:00 +19°C° 0.8 mm 3 m/S 544 mmHg 73%
14:00 +18°C° 0.8 mm 3 m/S 544 mmHg 75%
15:00 +18°C° 0.8 mm 3 m/S 543 mmHg 76%
16:00 +18°C° 0.8 mm 3 m/S 542 mmHg 77%
17:00 +17°C° 0.5 mm 2 m/S 542 mmHg 83%
18:00 +15°C° 0.5 mm 2 m/S 542 mmHg 88%
19:00 +14°C° 0.5 mm 1 m/S 542 mmHg 94%
20:00 +13°C° 0.4 mm 1 m/S 542 mmHg 95%
21:00 +13°C° 0.4 mm 1 m/S 543 mmHg 95%
22:00 +12°C° 0.4 mm 1 m/S 543 mmHg 96%
23:00 +13°C° 0.2 mm 1 m/S 543 mmHg 96%

Morgen, 3 März, Mittwoch

Zeit Temperatur Niederschläge Wind Luftdruck Luftfeuchtigkeit
00:00 +13°C° 0.2 mm 1 m/S 543 mmHg 96%
01:00 +13°C° 0.2 mm 1 m/S 543 mmHg 97%
02:00 +12°C° 0.2 mm 0 m/S 543 mmHg 97%
03:00 +12°C° 0.2 mm 0 m/S 543 mmHg 96%
04:00 +12°C° 0.2 mm 0 m/S 543 mmHg 96%
05:00 +12°C° 0.2 mm 0 m/S 543 mmHg 95%
06:00 +12°C° 0.2 mm 0 m/S 544 mmHg 94%
07:00 +12°C° 0.2 mm 0 m/S 544 mmHg 92%
08:00 +13°C° 0.3 mm 0 m/S 545 mmHg 86%
09:00 +16°C° 0.3 mm 1 m/S 546 mmHg 80%
10:00 +18°C° 0.3 mm 1 m/S 546 mmHg 74%
11:00 +18°C° 0.8 mm 2 m/S 546 mmHg 73%
12:00 +19°C° 0.8 mm 2 m/S 546 mmHg 71%
13:00 +20°C° 0.8 mm 3 m/S 545 mmHg 70%
14:00 +19°C° 0.6 mm 3 m/S 545 mmHg 71%
15:00 +19°C° 0.6 mm 3 m/S 544 mmHg 72%
16:00 +19°C° 0.6 mm 3 m/S 543 mmHg 73%
17:00 +17°C° 0.2 mm 2 m/S 543 mmHg 80%
18:00 +15°C° 0.2 mm 2 m/S 543 mmHg 86%
19:00 +14°C° 0.2 mm 1 m/S 542 mmHg 92%
20:00 +14°C° 0.1 mm 1 m/S 543 mmHg 93%
21:00 +13°C° 0.1 mm 1 m/S 544 mmHg 94%
22:00 +13°C° 0.1 mm 1 m/S 544 mmHg 94%
23:00 +13°C° 0.1 mm 1 m/S 544 mmHg 95%

übermorgen, 4 März, Donnerstag

Zeit Temperatur Niederschläge Wind Luftdruck Luftfeuchtigkeit
00:00 +13°C° 0.1 mm 1 m/S 544 mmHg 95%
01:00 +13°C° 0.1 mm 1 m/S 544 mmHg 96%
02:00 +13°C° 0.2 mm 1 m/S 544 mmHg 96%
03:00 +13°C° 0.2 mm 1 m/S 543 mmHg 96%
04:00 +13°C° 0.2 mm 1 m/S 543 mmHg 96%
05:00 +13°C° 0.1 mm 1 m/S 544 mmHg 96%
06:00 +13°C° 0.1 mm 1 m/S 544 mmHg 96%
07:00 +13°C° 0.1 mm 1 m/S 544 mmHg 95%
08:00 +15°C° 0.3 mm 1 m/S 545 mmHg 89%
09:00 +16°C° 0.3 mm 2 m/S 546 mmHg 82%
10:00 +17°C° 0.3 mm 2 m/S 546 mmHg 76%
11:00 +18°C° 0.9 mm 2 m/S 546 mmHg 74%
12:00 +19°C° 0.9 mm 3 m/S 546 mmHg 72%
13:00 +19°C° 0.9 mm 3 m/S 545 mmHg 70%
14:00 +19°C° 0.7 mm 3 m/S 544 mmHg 72%
15:00 +18°C° 0.7 mm 3 m/S 544 mmHg 75%
16:00 +18°C° 0.7 mm 2 m/S 543 mmHg 77%
17:00 +17°C° 0.6 mm 2 m/S 543 mmHg 83%
18:00 +15°C° 0.6 mm 2 m/S 542 mmHg 88%
19:00 +14°C° 0.6 mm 1 m/S 542 mmHg 94%
20:00 +13°C° 0.3 mm 1 m/S 543 mmHg 94%
21:00 +13°C° 0.3 mm 1 m/S 543 mmHg 94%
22:00 +13°C° 0.3 mm 1 m/S 543 mmHg 93%
23:00 +13°C° 0.1 mm 1 m/S 543 mmHg 94%

5 März, Freitag

Zeit Temperatur Niederschläge Wind Luftdruck Luftfeuchtigkeit
00:00 +12°C° 0.1 mm 0 m/S 543 mmHg 95%
01:00 +12°C° 0.1 mm 0 m/S 543 mmHg 96%
02:00 +12°C° 0.1 mm 0 m/S 543 mmHg 96%
03:00 +12°C° 0.1 mm 0 m/S 543 mmHg 96%
04:00 +12°C° 0.1 mm 0 m/S 542 mmHg 96%
05:00 +12°C° 0 mm 0 m/S 543 mmHg 94%
06:00 +12°C° 0 mm 0 m/S 543 mmHg 93%
07:00 +12°C° 0 mm 0 m/S 544 mmHg 91%
08:00 +14°C° 0.4 mm 1 m/S 544 mmHg 88%
09:00 +15°C° 0.4 mm 1 m/S 545 mmHg 85%
10:00 +16°C° 0.4 mm 2 m/S 545 mmHg 82%
11:00 +17°C° 0.7 mm 2 m/S 545 mmHg 81%
12:00 +17°C° 0.7 mm 3 m/S 544 mmHg 79%
13:00 +18°C° 0.7 mm 3 m/S 544 mmHg 78%
14:00 +17°C° 0.6 mm 3 m/S 543 mmHg 78%
15:00 +17°C° 0.6 mm 2 m/S 542 mmHg 79%
16:00 +17°C° 0.6 mm 2 m/S 542 mmHg 80%
17:00 +16°C° 0.1 mm 2 m/S 542 mmHg 84%
18:00 +14°C° 0.1 mm 1 m/S 541 mmHg 89%
19:00 +13°C° 0.1 mm 1 m/S 541 mmHg 93%
20:00 +13°C° 0.2 mm 1 m/S 542 mmHg 93%
21:00 +13°C° 0.2 mm 1 m/S 543 mmHg 94%
22:00 +13°C° 0.2 mm 1 m/S 543 mmHg 94%
23:00 +13°C° 0.2 mm 1 m/S 543 mmHg 95%

6 März, Samstag

Zeit Temperatur Niederschläge Wind Luftdruck Luftfeuchtigkeit
00:00 +13°C° 0.2 mm 1 m/S 543 mmHg 96%
01:00 +13°C° 0.2 mm 1 m/S 543 mmHg 96%
02:00 +12°C° 0 mm 1 m/S 542 mmHg 96%
03:00 +12°C° 0 mm 1 m/S 542 mmHg 96%
04:00 +12°C° 0 mm 1 m/S 542 mmHg 95%
05:00 +12°C° 0.1 mm 1 m/S 542 mmHg 94%
06:00 +12°C° 0.1 mm 0 m/S 543 mmHg 93%
07:00 +12°C° 0.1 mm 0 m/S 543 mmHg 92%
08:00 +14°C° 0.2 mm 1 m/S 544 mmHg 87%
09:00 +15°C° 0.2 mm 1 m/S 545 mmHg 82%
10:00 +17°C° 0.2 mm 2 m/S 545 mmHg 78%
11:00 +18°C° 0.7 mm 2 m/S 545 mmHg 75%
12:00 +18°C° 0.7 mm 3 m/S 545 mmHg 73%
13:00 +19°C° 0.7 mm 3 m/S 545 mmHg 71%
14:00 +19°C° 1 mm 3 m/S 544 mmHg 73%
15:00 +18°C° 1 mm 3 m/S 543 mmHg 76%
16:00 +18°C° 1 mm 3 m/S 543 mmHg 78%
17:00 +16°C° 0.2 mm 2 m/S 542 mmHg 84%
18:00 +15°C° 0.2 mm 2 m/S 542 mmHg 89%
19:00 +14°C° 0.2 mm 1 m/S 542 mmHg 95%
20:00 +14°C° 0.1 mm 1 m/S 543 mmHg 95%
21:00 +14°C° 0.1 mm 1 m/S 543 mmHg 95%
22:00 +13°C° 0.1 mm 1 m/S 544 mmHg 95%
23:00 +13°C° 0.6 mm 1 m/S 544 mmHg 95%

7 März, Sonntag

Zeit Temperatur Niederschläge Wind Luftdruck Luftfeuchtigkeit
00:00 +13°C° 0.6 mm 1 m/S 543 mmHg 95%
01:00 +13°C° 0.6 mm 1 m/S 543 mmHg 95%
02:00 +13°C° 1 mm 1 m/S 543 mmHg 95%
03:00 +13°C° 1 mm 1 m/S 543 mmHg 95%
04:00 +11°C° 1 mm 0 m/S 543 mmHg 95%
05:00 +12°C° 0.1 mm 0 m/S 543 mmHg 94%
06:00 +12°C° 0.1 mm 0 m/S 543 mmHg 94%
07:00 +12°C° 0.1 mm 0 m/S 544 mmHg 93%
08:00 +14°C° 0.2 mm 1 m/S 545 mmHg 88%
09:00 +16°C° 0.2 mm 1 m/S 545 mmHg 82%
10:00 +17°C° 0.2 mm 2 m/S 546 mmHg 77%
11:00 +18°C° 0.9 mm 2 m/S 546 mmHg 75%
12:00 +19°C° 0.9 mm 3 m/S 545 mmHg 72%
13:00 +20°C° 0.9 mm 3 m/S 545 mmHg 70%
14:00 +19°C° 0.9 mm 3 m/S 544 mmHg 71%
15:00 +19°C° 0.9 mm 3 m/S 544 mmHg 73%
16:00 +19°C° 0.9 mm 3 m/S 543 mmHg 74%
17:00 +17°C° 0.4 mm 2 m/S 543 mmHg 81%
18:00 +15°C° 0.4 mm 2 m/S 542 mmHg 88%
19:00 +14°C° 0.4 mm 2 m/S 542 mmHg 95%
20:00 +14°C° 0.1 mm 1 m/S 543 mmHg 94%
21:00 +14°C° 0.1 mm 1 m/S 544 mmHg 94%
22:00 +14°C° 0.1 mm 1 m/S 544 mmHg 94%
23:00 +14°C° 0.2 mm 1 m/S 544 mmHg 95%
Mehr zeigen

Wir brauchen deine Erlaubnis

Meteoprog und unser Service Anbieter werden persönliche Daten aufbewahren, so wie Cookies, Geräte Bezeichnung oder ähnliche Technologien von deinem Gerät und Prozess, so wie Persönliche Daten Inhalte und Werbungen, genauso wie social Media und den Verkehr zu analysieren.

  • Aufbewahrung und/oder Zugang zu deiner Geräte Informationen.

    Cookies, Geräte Bezeichnung oder andere Informationen, können aufbewahrt oder Zugang zu deinem Gerät erhalten, für den Grund, der oben angegeben wird.

  • Personalisierte Werbung und Inhalte, Messungen, Einblick in das Publikum und Produkt Entwicklung.

    Werbungen und Inhalte können personalisiert werden, basierend auf ein Profil. Mehr Daten können besser personalisierte Werbungen und Inhalte hinzufügen. Werbung und Inhalte können gezeigt und gemessen werden. Einblicke über das Publikum, welche die Werbung gesehen haben und den Inhalt, können abgeleitet werden. So wie Daten können genutzt werden, um es zu verbessern oder die Benutzer Erfahrung zu verbessern das System und die Software.

Wenn du “Ich stimme zu” klickst, erlaubst du uns, die Cookies zu benutzen die Geräte Bezeichnung, den Web oder ähnliche Technologien zu benutzen. Deine Settings, können in deinem Gerät bei deinem Browser geändert werden.

Für den bestimmten Zweck, berechtigten Interessen beruhen darauf, mehr als auf den Inhalt. Du kannst mehr darüber in unseren Privaten und Cookie Politik lesen.